This is the latest recevied weather packets stored in our database for station/object K5YNC. If no packets are shown the sender has not sent any weather packets the latest 10 day(s).
| Time | Temp. | Humidity | Pressure | Rain* | Wind** | Luminosity | Snow |
|---|---|---|---|---|---|---|---|
| 1777917325 | 25° C | 61% | 1011.1 hPa | 0 mm | - | 777 W/m² | - |
| 1777917022 | 24.44° C | 61% | 1011.4 hPa | 0 mm | - | 767 W/m² | - |
| 1777916720 | 24.44° C | 61% | 1011.5 hPa | 0 mm | - | 670 W/m² | - |
| 1777916416 | 23.89° C | 61% | 1011.7 hPa | 0 mm | - | 658 W/m² | - |
| 1777916113 | 23.89° C | 62% | 1011.6 hPa | 0 mm | - | 584 W/m² | - |
| 1777915811 | 23.89° C | 62% | 1011.7 hPa | 0 mm | - | 655 W/m² | - |
| 1777915507 | 23.89° C | 61% | 1011.6 hPa | 0 mm | - | 758 W/m² | - |
| 1777915203 | 23.89° C | 62% | 1011.8 hPa | 0 mm | - | 755 W/m² | - |
| 1777914900 | 23.33° C | 62% | 1011.9 hPa | 0 mm | - | 725 W/m² | - |
| 1777914597 | 23.33° C | 63% | 1011.9 hPa | 0 mm | - | 702 W/m² | - |
| 1777914293 | 23.33° C | 63% | 1011.9 hPa | 0 mm | - | 731 W/m² | - |
| 1777913991 | 23.33° C | 63% | 1012.2 hPa | 0 mm | - | 621 W/m² | - |
| 1777913687 | 22.78° C | 62% | 1012.1 hPa | 0 mm | - | 640 W/m² | - |
| 1777913384 | 22.78° C | 63% | 1012.2 hPa | 0 mm | - | 596 W/m² | - |
| 1777913080 | 22.78° C | 64% | 1012.3 hPa | 0 mm | - | 466 W/m² | - |
| 1777912777 | 22.78° C | 62% | 1012.4 hPa | 0 mm | - | 531 W/m² | - |
| 1777912472 | 22.78° C | 63% | 1012.5 hPa | 0 mm | - | 611 W/m² | - |
| 1777912169 | 22.78° C | 63% | 1012.5 hPa | 0 mm | - | 591 W/m² | - |
| 1777911865 | 22.78° C | 62% | 1012.6 hPa | 0 mm | - | 553 W/m² | - |
| 1777911562 | 22.78° C | 63% | 1012.7 hPa | 0 mm | - | 589 W/m² | - |
| 1777911258 | 22.78° C | 63% | 1012.6 hPa | 0 mm | - | 651 W/m² | - |
| 1777910955 | 22.78° C | 63% | 1012.8 hPa | 0 mm | - | 579 W/m² | - |
| 1777910653 | 22.22° C | 64% | 1012.9 hPa | 0 mm | - | 613 W/m² | - |
| 1777910349 | 21.67° C | 65% | 1012.7 hPa | 0 mm | - | 495 W/m² | - |
| 1777910046 | 21.67° C | 64% | 1012.8 hPa | 0 mm | - | 501 W/m² | - |
* Rain latest hour (hover to see other rain measurements)
** Current wind speed in m/s (hover to see current wind gust speed)